Погода в Энкаме

Андорра     42°32′01″N   1°34′56″E
темп.,
°C
ветер,
м/с
пор.,
м/с
влажн.,
%
обл.,
%
осадки,
мм/ч
давл.,
гПа
погр.,
м
21 апреля, ср
ср2123:00+1ю1199100 1.1 1015177
02:00+1ю1199100 1.6 1015240
05:00+1св0199100 0.9 1014172
08:00+1св129268 0.9 101475
11:00+4ююз117686 0.2 1013852
14:00+5юз1179100 1.6 1012648
17:00+5юз128383 2.1 1012609
20:00+3ю2293100 3.1 1013168
22 апреля, чт
чт2223:00+2ю2299100 0.3 1015189
02:00+2ю2399100 0.5 1015232
05:00+1ююз119597 0.0 1015243
08:00+1ю1192100 0.0 1016341
11:00+4ю2179100 0.0 1015602
14:00+6ююз3274100 0.2 1014882
17:00+4ююз2289100 0.9 1015573
20:00+2с1196100 7.3 1018125
23 апреля, пт
пт2323:00+1всв119693 0.3 102039
02:000св119541 0.3 102133
05:000св229436 0.0 102135
08:00+1всв11905 0.0 102128
11:00+7ююз22634 0.0 1019793
14:00+10юз324836 0.0 10181790
17:00+10юз224539 0.0 10171731
20:00+7ююз246832 0.0 1019116
24 апреля, сб
сб2423:00+2в118778 0.0 102311
02:00+1в1189100 0.0 102314
05:000в119184 0.0 102215
08:00+2всв118241 0.0 102228
11:00+10ююз33330 0.0 1018708
14:00+12юз3432100 0.0 10181254
17:00+11юз3335100 0.0 10171136
20:00+7ююз2360100 0.0 101865
25 апреля, вс
вс2523:00+2ю0182100 0.0 102121
02:00+3св1274100 0.0 102031
05:00+5ю224898 0.0 101727
08:00+4ююв1260100 0.0 101867
11:00+8ююз3470100 0.4 1016303
14:00+12ю4664100 1.2 10141069
17:00+13ююз485013 0.0 10121419
20:00+9ю45654 0.0 1013410